Weather History for Lihue, HI

Change the Weather History Date:

Sunday, August 24, 2014

  Actual Average Record
Temperature  
Mean Temperature 79 °F 80 °F  
Max Temperature 84 °F 85 °F 89 °F (1959)
Min Temperature 74 °F 75 °F 69 °F (1951)
Degree Days  
Heating Degree Days 0 0  
Month to date heating degree days 0 0  
Since 1 June heating degree days 0 0  
Since 1 July heating degree days 0 0  
Cooling Degree Days 14 15  
Month to date cooling degree days 350 359  
Year to date cooling degree days 2414 2431  
Since 1 June cooling degree days 1193 1192  
Growing Degree Days 29 (Base 50)    
Moisture  
Dew Point 71 °F    
Average Humidity 78    
Maximum Humidity 87    
Minimum Humidity 69    
Precipitation  
Precipitation 0.04 in 0.06 in 0.26 in (1970)
Month to date precipitation 3.55 1.70  
Year to date precipitation 23.92 21.02  
Snow  
Snow 0.00 in - - ()
Month to date snowfall 0.0  
Since 1 June snowfall 0.0  
Since 1 July snowfall 0.0  
Snow Depth 0.00 in    
Sea Level Pressure  
Sea Level Pressure 29.96 in    
Wind  
Wind Speed 9 mph (NE)    
Max Wind Speed 22 mph    
Max Gust Speed 26 mph    
Visibility 9 miles    
Events Rain    
T = Trace of Precipitation, MM = Missing Value Source: NWS Daily Summary

Daily Weather History Graph

Daily Weather History Graph

Search for Another Location

Airport:

Trip Planner

Search our weather history database for the weather conditions in past years. The results will help you decide how hot, cold, wet, or windy it might be!

Date:

Astronomy

Aug. 24, 2014 Rise Set
Actual Time 6:18 AM HST 7:00 PM HST
Civil Twilight 5:55 AM HST 7:23 PM HST
Nautical Twilight 5:28 AM HST 7:50 PM HST
Astronomical Twilight 5:00 AM HST 8:17 PM HST
Moon 5:37 AM HST (8/24) 6:30 PM HST (8/24)
Length of Visible Light 13h 28m
Length of Day
12h 42m
Waning Crescent, 0% of the Moon is Illuminated
Aug 24
Waning Crescent
Aug 25
New
Sep 2
First Quarter
Sep 8
Full
Sep 15
Last Quarter

Hourly Weather History & Observations

Time (HST) Temp. Heat Index Dew Point Humidity Pressure Visibility Wind Dir Wind Speed Gust Speed Precip Events Conditions
12:53 AM 78.1 °F - 69.1 °F 74% 29.98 in 10.0 mi NE 12.7 mph - N/A   Mostly Cloudy
1:35 AM 78.8 °F - 69.8 °F 74% 29.97 in 10.0 mi NNE 11.5 mph - N/A   Overcast
1:53 AM 77.0 °F - 68.0 °F 74% 29.96 in 10.0 mi North 5.8 mph - N/A   Mostly Cloudy
2:13 AM 75.2 °F - 68.0 °F 78% 29.96 in 10.0 mi North 6.9 mph - N/A   Mostly Cloudy
2:42 AM 75.2 °F - 68.0 °F 78% 29.95 in 10.0 mi NNW 5.8 mph - N/A   Mostly Cloudy
2:53 AM 75.9 °F - 69.1 °F 79% 29.94 in 10.0 mi NNW 4.6 mph - N/A   Overcast
3:53 AM 77.0 °F - 69.1 °F 76% 29.93 in 10.0 mi North 8.1 mph - N/A   Overcast
4:35 AM 75.2 °F - 71.6 °F 89% 29.94 in 10.0 mi NNW 8.1 mph - 0.00 in   Overcast
4:53 AM 75.0 °F - 70.0 °F 84% 29.93 in 10.0 mi NNW 6.9 mph - 0.00 in   Overcast
5:53 AM 75.0 °F - 71.1 °F 87% 29.94 in 10.0 mi NNW 5.8 mph - 0.00 in Rain Light Rain
6:25 AM 75.2 °F - 69.8 °F 83% 29.96 in 10.0 mi NE 16.1 mph - 0.00 in   Overcast
6:30 AM 75.2 °F - 71.6 °F 89% 29.95 in 10.0 mi ENE 21.9 mph 26.5 mph 0.00 in   Overcast
6:38 AM 75.2 °F - 71.6 °F 89% 29.96 in 3.0 mi ENE 18.4 mph - 0.00 in Rain Rain
6:44 AM 75.2 °F - 71.6 °F 89% 29.96 in 1.8 mi ENE 18.4 mph - 0.02 in Rain Rain
6:51 AM 75.2 °F - 71.6 °F 89% 29.97 in 3.0 mi ENE 15.0 mph - 0.02 in Rain Light Rain
6:53 AM 75.0 °F - 71.1 °F 87% 29.96 in 4.0 mi ENE 13.8 mph - 0.02 in Rain Light Rain
7:53 AM 75.9 °F - 71.1 °F 85% 29.97 in 7.0 mi ENE 3.5 mph - 0.00 in Rain Light Rain
8:33 AM 77.0 °F - 73.4 °F 89% 29.98 in 10.0 mi Calm Calm - 0.00 in Rain Light Rain
8:53 AM 79.0 °F - 73.0 °F 82% 29.98 in 10.0 mi Calm Calm - 0.01 in   Overcast
9:05 AM 80.6 °F 84.6 °F 71.6 °F 74% 29.98 in 10.0 mi NE 10.4 mph - N/A   Mostly Cloudy
9:53 AM 81.0 °F 86.2 °F 73.9 °F 79% 29.98 in 8.0 mi ENE 8.1 mph - 0.00 in Rain Light Rain
10:38 AM 78.8 °F - 71.6 °F 78% 29.98 in 4.0 mi ENE 9.2 mph 23.0 mph 0.00 in Rain Heavy Rain
10:48 AM 80.6 °F 85.4 °F 73.4 °F 79% 29.98 in 10.0 mi NE 10.4 mph - 0.01 in   Mostly Cloudy
10:53 AM 80.1 °F 84.5 °F 73.9 °F 81% 29.97 in 10.0 mi ENE 10.4 mph - 0.01 in   Mostly Cloudy
11:53 AM 82.9 °F 88.0 °F 72.0 °F 69% 29.96 in 10.0 mi East 12.7 mph - N/A   Partly Cloudy
12:53 PM 82.9 °F 88.8 °F 73.0 °F 72% 29.96 in 10.0 mi East 12.7 mph - N/A   Scattered Clouds
1:53 PM 82.9 °F 87.5 °F 71.1 °F 67% 29.94 in 10.0 mi ENE 11.5 mph - N/A   Partly Cloudy
2:53 PM 82.9 °F 88.0 °F 72.0 °F 69% 29.92 in 10.0 mi ENE 10.4 mph - N/A   Scattered Clouds
3:53 PM 82.4 °F 87.2 °F 71.6 °F 70% 29.92 in 10.0 mi ENE 10.4 mph - N/A   Scattered Clouds
4:53 PM 82.0 °F 86.3 °F 71.1 °F 69% 29.91 in 10.0 mi NE 10.4 mph - N/A   Clear
5:30 PM 82.4 °F 87.2 °F 71.6 °F 70% 29.92 in 10.0 mi NE 12.7 mph - N/A   Mostly Cloudy
5:53 PM 81.0 °F 84.9 °F 71.1 °F 72% 29.92 in 10.0 mi NE 11.5 mph - N/A   Mostly Cloudy
6:02 PM 80.6 °F 83.9 °F 69.8 °F 70% 29.93 in 10.0 mi NE 10.4 mph - N/A   Partly Cloudy
6:53 PM 79.0 °F - 71.1 °F 77% 29.93 in 10.0 mi NE 10.4 mph - N/A   Mostly Cloudy
7:53 PM 79.0 °F - 71.1 °F 77% 29.95 in 10.0 mi NE 8.1 mph - N/A   Scattered Clouds
8:53 PM 79.0 °F - 71.1 °F 77% 29.96 in 10.0 mi NNE 8.1 mph - N/A   Mostly Cloudy
9:07 PM 78.8 °F - 71.6 °F 78% 29.98 in 10.0 mi NE 5.8 mph - N/A   Overcast
9:53 PM 79.0 °F - 71.1 °F 77% 29.98 in 10.0 mi NE 10.4 mph - N/A   Overcast
10:12 PM 78.8 °F - 71.6 °F 78% 29.98 in 10.0 mi NE 11.5 mph - N/A   Overcast
10:53 PM 78.1 °F - 71.1 °F 79% 29.98 in 10.0 mi ENE 12.7 mph - 0.02 in   Scattered Clouds
11:21 PM 78.8 °F - 71.6 °F 78% 29.98 in 10.0 mi ENE 13.8 mph - N/A   Mostly Cloudy
11:37 PM 78.8 °F - 71.6 °F 78% 29.98 in 10.0 mi ENE 11.5 mph - N/A   Mostly Cloudy
11:46 PM 78.8 °F - 71.6 °F 78% 29.98 in 10.0 mi ENE 13.8 mph - N/A   Overcast
11:53 PM 78.1 °F - 71.1 °F 79% 29.97 in 10.0 mi ENE 13.8 mph - N/A   Mostly Cloudy